| time (UTC) | temp F | wind direction | speed MPH | gust MPH | rain 1hr in | rain 24hr in | rain mn in | humidity % | barometer mb |
| 20260831204615 | 106 | 143 | 0.0 | 2.0 | 0.00 | 0.00 | 0.00 | ||
| 20260831204108 | 105 | 143 | 0.0 | 0.0 | 0.00 | 0.00 | 0.00 | ||
| 20260831203607 | 102 | 143 | 0.0 | 0.0 | 0.00 | 0.00 | 0.00 | ||
| 20260831203107 | 101 | 108 | 0.0 | 0.0 | 0.00 | 0.00 | 0.00 | ||
| 20260831202100 | 105 | 186 | 1.0 | 0.0 | 0.00 | 0.00 | 0.00 | ||
| 20260831201600 | 104 | 80 | 0.0 | 0.0 | 0.00 | 0.00 | 0.00 | ||
| 20260831200553 | 99 | 172 | 0.0 | 0.0 | 0.00 | 0.00 | 0.00 | ||
| 20260831193037 | 101 | 211 | 0.0 | 0.0 | 0.00 | 0.00 | 0.00 | ||
| 20260831192537 | 105 | 211 | 0.0 | 0.0 | 0.00 | 0.00 | 0.00 | ||
| 20260831191537 | 102 | 211 | 0.0 | 0.0 | 0.00 | 0.00 | 0.00 | ||
| 20260831191023 | 99 | 167 | 0.0 | 0.0 | 0.00 | 0.00 | 0.00 | ||
| 20260831190522 | 103 | 167 | 0.0 | 0.0 | 0.00 | 0.00 | 0.00 | ||
| 20260831190021 | 102 | 167 | 0.0 | 0.0 | 0.00 | 0.00 | 0.00 | ||
| 20260831185015 | 101 | 167 | 0.0 | 0.0 | 0.00 | 0.00 | 0.00 | ||
| 20260831184006 | 97 | 167 | 0.0 | 0.0 | 0.00 | 0.00 | 0.00 | ||
| 20260831182500 | 105 | 156 | 0.0 | 0.0 | 0.00 | 0.00 | 0.00 | ||
| 20260831180951 | 105 | 128 | 1.0 | 0.0 | 0.00 | 0.00 | 0.00 | ||
| 20260831135323 | 86 | 124 | 0.0 | 0.0 | 0.00 | 0.00 | 0.00 | ||
| 20260831134852 | 86 | 124 | 0.0 | 0.0 | 0.00 | 0.00 | 0.00 | ||
| 20260831134755 | 86 | 124 | 0.0 | 0.0 | 0.00 | 0.00 | 0.00 | ||
| 20260831114656 | 72 | 124 | 0.0 | 0.0 | 0.00 | 0.00 | 0.00 | ||
| 20260831113146 | 73 | 124 | 0.0 | 0.0 | 0.00 | 0.00 | 0.00 | ||
| 20260831112148 | 73 | 124 | 0.0 | 0.0 | 0.00 | 0.00 | 0.00 | ||
| 20260831104117 | 74 | 124 | 0.0 | 0.0 | 0.00 | 0.00 | 0.00 | ||
| 20260831103112 | 74 | 124 | 0.0 | 0.0 | 0.00 | 0.00 | 0.00 | ||
| 20260831100051 | 74 | 124 | 0.0 | 0.0 | 0.00 | 0.00 | 0.00 | ||
| 20260831094038 | 74 | 124 | 0.0 | 0.0 | 0.00 | 0.00 | 0.00 | ||
| 20260831093033 | 74 | 124 | 0.0 | 0.0 | 0.00 | 0.00 | 0.00 | ||
| 20260831092026 | 74 | 124 | 0.0 | 0.0 | 0.00 | 0.00 | 0.00 | ||
| 20260831091526 | 74 | 124 | 0.0 | 0.0 | 0.00 | 0.00 | 0.00 | ||
| 20260831090519 | 74 | 124 | 0.0 | 0.0 | 0.00 | 0.00 | 0.00 | ||
| 20260831085518 | 74 | 124 | 0.0 | 0.0 | 0.00 | 0.00 | 0.00 | ||
| 20260831021228 | 86 | 124 | 0.0 | 0.0 | 0.00 | 0.00 | 0.00 | ||
| 20260831020728 | 86 | 124 | 0.0 | 0.0 | 0.00 | 0.00 | 0.00 | ||
| 20260831020221 | 86 | 124 | 0.0 | 0.0 | 0.00 | 0.00 | 0.00 | ||
| 20260831015719 | 87 | 124 | 0.0 | 0.0 | 0.00 | 0.00 | 0.00 | ||
| 20260831015219 | 87 | 124 | 0.0 | 0.0 | 0.00 | 0.00 | 0.00 | ||
| 20260831014713 | 87 | 124 | 0.0 | 0.0 | 0.00 | 0.00 | 0.00 | ||
| 20260831014212 | 87 | 124 | 0.0 | 0.0 | 0.00 | 0.00 | 0.00 | ||
| 20260831013709 | 88 | 124 | 0.0 | 0.0 | 0.00 | 0.00 | 0.00 | ||
| 20260831013204 | 88 | 124 | 0.0 | 0.0 | 0.00 | 0.00 | 0.00 | ||
| 20260831012703 | 88 | 124 | 0.0 | 0.0 | 0.00 | 0.00 | 0.00 | ||
| 20260831012202 | 89 | 124 | 0.0 | 0.0 | 0.00 | 0.00 | 0.00 | ||
| 20260831011655 | 89 | 124 | 0.0 | 0.0 | 0.00 | 0.00 | 0.00 | ||
| 20260831011156 | 89 | 124 | 0.0 | 0.0 | 0.00 | 0.00 | 0.00 | ||
| 20260831010654 | 90 | 124 | 0.0 | 0.0 | 0.00 | 0.00 | 0.00 | ||
| 20260831010148 | 90 | 124 | 0.0 | 0.0 | 0.00 | 0.00 | 0.00 | ||
| 20260831005647 | 91 | 124 | 0.0 | 0.0 | 0.00 | 0.00 | 0.00 | ||
| 20260831005239 | 91 | 124 | 0.0 | 0.0 | 0.00 | 0.00 | 0.00 | ||
| 20260831005146 | 91 | 124 | 0.0 | 0.0 | 0.00 | 0.00 | 0.00 | ||
| 20260831004641 | 92 | 124 | 0.0 | 0.0 | 0.00 | 0.00 | 0.00 | ||
| 20260831004140 | 92 | 124 | 0.0 | 0.0 | 0.00 | 0.00 | 0.00 | ||
| 20260831003639 | 93 | 124 | 0.0 | 0.0 | 0.00 | 0.00 | 0.00 | ||
| 20260831003132 | 93 | 124 | 0.0 | 0.0 | 0.00 | 0.00 | 0.00 | ||
| 20260831002631 | 93 | 124 | 0.0 | 0.0 | 0.00 | 0.00 | 0.00 | ||
| 20260831002131 | 94 | 124 | 0.0 | 0.0 | 0.00 | 0.00 | 0.00 | ||
| 20260831001625 | 94 | 124 | 0.0 | 0.0 | 0.00 | 0.00 | 0.00 | ||
| 20260831000624 | 95 | 124 | 0.0 | 0.0 | 0.00 | 0.00 | 0.00 | ||
| 20260831000113 | 96 | 124 | 0.0 | 1.0 | 0.00 | 0.00 | 0.00 | ||
| 20260830235612 | 96 | 121 | 0.0 | 0.0 | 0.00 | 0.00 | 0.00 | ||
| 20260830234604 | 97 | 63 | 0.0 | 0.0 | 0.00 | 0.00 | 0.00 | ||
| 20260830231550 | 99 | 97 | 0.0 | 2.0 | 0.00 | 0.00 | 0.00 | ||
| 20260830231049 | 100 | 104 | 0.0 | 0.0 | 0.00 | 0.00 | 0.00 | ||
| 20260830230553 | 100 | 104 | 0.0 | 0.0 | 0.00 | 0.00 | 0.00 | ||
| 20260830230041 | 101 | 141 | 0.0 | 0.0 | 0.00 | 0.00 | 0.00 | ||
| 20260830225036 | 101 | 141 | 0.0 | 0.0 | 0.00 | 0.00 | 0.00 | ||
| 20260830224530 | 102 | 135 | 0.0 | 0.0 | 0.00 | 0.00 | 0.00 | ||
| 20260830223023 | 103 | 135 | 0.0 | 0.0 | 0.00 | 0.00 | 0.00 | ||
| 20260830222522 | 102 | 135 | 0.0 | 0.0 | 0.00 | 0.00 | 0.00 | ||
| 20260830222022 | 102 | 135 | 0.0 | 0.0 | 0.00 | 0.00 | 0.00 | ||
| 20260830221513 | 102 | 135 | 0.0 | 0.0 | 0.00 | 0.00 | 0.00 | ||
| 20260830221012 | 103 | 135 | 0.0 | 0.0 | 0.00 | 0.00 | 0.00 | ||
| 20260830220005 | 101 | 135 | 0.0 | 5.0 | 0.00 | 0.00 | 0.00 | ||
| 20260830214458 | 103 | 62 | 1.0 | 0.0 | 0.00 | 0.00 | 0.00 | ||
| 20260830213455 | 102 | 62 | 0.0 | 0.0 | 0.00 | 0.00 | 0.00 | ||
| 20260830211607 | 104 | 155 | 1.0 | 0.0 | 0.00 | 0.00 | 0.00 | ||
| 20260830211605 | 105 | 235 | 0.0 | 0.0 | 0.00 | 0.00 | 0.00 | ||
| 20260830211443 | 105 | 62 | 0.0 | 0.0 | 0.00 | 0.00 | 0.00 | ||
| 20260830210441 | 104 | 62 | 0.0 | 0.0 | 0.00 | 0.00 | 0.00 |